Wind_Speed
17 17 18 19 18 17 16 15 16 14 13 14 22 23 16 13 11 10 16 23 23 23 26 26 23 18 19 14 6 22 33 19 14 22 25 21 20 19 18 21 20 21 26 26 25 25 23 23 24 24 24 24 23 22 21 18 14 12 10 9 7 7 9 10 11 13 14 13 12 14 16 18 20 22 22 18 14 11 10 12 17 23 29 33 33 34
14 14 15 16 17 16 9 10 15 13 15 24 27 27 20 11 13 18 18 17 24 24 23 26 25 21 19 13 12 19 32 30 19 19 24 22 20 20 19 22 19 20 26 26 26 25 22 22 22 22 21 22 22 21 20 18 15 11 9 9 7 6 7 8 10 11 12 12 11 12 14 16 18 21 24 23 21 18 14 12 11 15 22 29 32 34
9 9 13 14 15 15 9 10 18 20 21 25 22 24 22 12 11 18 19 13 19 24 23 23 22 19 17 16 17 21 28 31 24 19 23 22 19 19 22 24 20 20 25 25 25 25 23 22 22 21 20 20 19 19 19 17 15 12 9 8 7 7 7 7 9 10 10 11 10 11 13 14 16 18 22 25 26 24 22 19 15 11 13 19 26 30
8 4 8 10 9 11 11 12 16 22 22 20 19 24 23 16 13 15 15 13 18 20 18 16 16 16 16 16 19 20 21 23 21 19 20 19 17 18 23 25 19 21 26 25 25 25 22 23 22 21 20 19 18 17 17 16 14 13 12 10 8 8 9 9 10 10 10 10 9 10 11 13 15 17 19 22 25 25 24 23 21 17 14 12 15 19
10 7 8 12 10 10 13 14 13 18 22 19 21 25 23 19 15 15 16 17 16 17 17 16 16 16 16 17 16 17 15 14 16 16 17 20 20 19 23 26 21 21 25 25 24 24 22 22 22 21 20 18 18 17 15 15 14 13 13 12 11 10 10 11 11 11 10 9 9 9 9 11 13 15 17 19 21 22 21 21 22 21 20 17 14 13
12 12 10 8 11 13 15 16 15 19 21 20 20 20 20 20 18 17 16 17 18 16 14 16 19 17 15 16 17 19 16 12 16 14 12 19 24 23 24 27 25 20 22 25 24 24 23 22 22 21 20 18 17 16 15 14 13 13 12 12 12 11 11 12 13 13 12 10 10 9 9 9 10 12 14 15 17 18 18 18 19 20 21 21 19 17
12 13 11 8 12 16 15 14 16 18 18 18 15 13 16 19 20 21 19 19 21 19 17 16 19 18 15 14 14 16 16 15 19 18 16 20 25 26 25 27 27 21 21 25 24 23 22 22 22 21 20 18 16 15 14 13 13 12 11 11 12 11 11 12 13 14 14 13 11 10 9 9 9 10 11 12 13 14 15 14 15 17 18 20 21 20
13 13 15 16 17 17 16 15 15 17 18 16 12 10 14 16 17 19 18 20 21 20 21 19 18 20 18 16 14 16 17 17 19 21 21 22 24 26 26 25 26 22 21 24 24 23 21 21 22 21 20 18 16 15 14 13 12 12 11 11 12 12 11 12 13 13 14 14 13 11 10 9 9 9 9 10 10 11 12 13 14 15 16 17 19 20
14 12 13 16 16 16 16 15 13 14 16 14 13 15 18 18 16 16 17 17 17 18 22 18 17 21 20 16 15 18 19 17 19 23 23 21 22 26 26 24 24 25 24 24 24 23 21 20 21 21 19 19 18 16 15 13 12 11 11 10 10 10 10 11 12 13 14 14 14 13 12 11 10 9 9 9 10 10 11 12 14 15 16 17 18 20
14 14 15 16 16 14 12 13 14 16 16 15 20 21 19 19 18 18 19 17 17 21 23 17 16 21 20 16 16 19 21 18 17 20 22 22 24 27 25 23 24 27 28 26 25 24 21 20 21 21 20 19 19 18 17 15 13 12 12 10 9 9 10 11 12 14 15 16 16 16 16 15 13 12 11 10 10 11 11 12 14 15 17 18 19 21
15 16 17 17 19 19 17 19 20 20 21 22 27 25 20 22 22 23 24 20 22 27 25 18 17 20 21 18 18 20 21 20 19 19 21 22 23 26 26 23 23 26 29 28 26 24 22 22 22 21 20 20 19 18 18 17 16 15 15 13 12 11 12 13 14 15 16 18 19 19 18 17 17 16 15 14 14 13 14 14 15 16 17 19 21 22
17 17 17 17 20 21 22 24 22 22 22 23 28 28 25 27 28 30 29 25 28 30 24 17 14 19 23 21 18 18 21 24 24 23 23 22 23 27 28 25 23 25 29 29 28 25 23 24 24 23 21 20 19 19 18 18 18 18 17 17 15 14 15 16 16 16 17 18 19 19 19 18 18 17 17 17 16 16 17 17 18 18 19 20 22 23
16 17 17 17 18 19 20 20 20 22 23 20 21 26 26 26 27 30 27 23 26 25 18 15 14 18 21 20 19 17 18 21 23 25 25 23 24 26 26 25 24 26 28 29 30 27 24 24 24 23 22 21 19 19 19 18 19 19 19 19 18 18 18 17 17 18 18 18 19 19 19 19 19 18 18 18 18 18 19 19 21 21 22 23 24 25
17 17 17 15 17 20 18 15 15 18 19 16 14 16 19 18 19 21 20 20 22 20 16 15 18 21 21 21 21 20 19 19 21 25 24 23 25 25 25 27 28 28 27 28 30 28 24 23 24 24 23 22 21 20 20 19 20 20 20 20 20 20 19 18 18 19 19 19 19 20 20 21 21 20 20 20 21 21 22 22 23 24 25 26 26 27
18 18 19 18 19 19 17 14 14 15 16 17 15 14 16 15 15 18 18 19 21 20 19 18 20 22 20 21 22 22 23 23 24 28 28 28 29 26 24 26 29 30 27 26 30 29 25 23 25 25 24 24 23 22 21 21 20 20 20 20 19 19 18 17 17 18 19 19 19 20 21 22 23 23 23 23 23 24 24 25 26 26 27 27 28 29
19 19 20 21 22 20 19 18 19 20 19 18 17 18 19 16 17 22 22 21 21 22 23 20 21 22 19 20 21 20 21 22 23 26 28 30 30 26 25 25 27 31 30 27 28 29 27 24 26 27 25 26 25 24 23 22 21 21 20 20 19 18 17 16 16 16 17 19 20 21 21 22 23 24 24 24 24 25 25 26 26 26 26 27 27 28
20 20 21 23 23 23 24 24 24 24 20 18 21 21 21 20 21 24 25 23 23 26 24 20 22 24 23 24 24 21 20 20 20 21 23 29 30 27 25 23 23 27 29 28 27 30 29 25 25 27 26 26 26 25 24 23 23 22 21 21 20 18 17 16 16 16 17 18 20 21 22 22 22 23 23 23 23 23 24 24 24 24 24 25 26 27
22 21 19 21 23 22 24 26 25 24 23 22 23 22 23 25 24 25 26 24 23 25 24 21 23 25 24 27 27 23 21 20 18 18 20 26 27 24 23 22 21 22 25 25 25 29 30 26 26 27 27 26 26 26 25 24 23 22 22 23 22 20 17 16 16 16 17 18 20 22 23 24 23 22 21 21 21 21 22 22 22 23 23 24 25 26
22 21 17 18 21 21 23 25 23 22 23 23 22 22 24 26 24 25 26 24 22 24 24 21 22 24 25 27 27 26 25 23 21 20 20 23 25 24 23 23 22 21 22 22 23 26 29 28 26 27 28 27 26 27 26 24 23 22 23 24 24 21 19 18 17 16 17 18 21 24 25 24 23 22 20 19 20 21 21 21 22 23 23 24 25 25
21 22 19 17 20 22 24 26 24 22 23 22 22 23 25 25 25 25 25 24 23 24 24 23 22 23 25 27 26 25 26 26 24 21 18 20 23 23 21 22 22 22 22 21 22 24 26 29 26 24 28 28 26 27 26 24 24 24 25 26 25 23 21 20 18 17 17 19 22 25 26 25 23 21 20 20 20 21 21 22 22 23 24 25 26 26
21 24 22 18 19 22 24 26 25 25 27 27 27 26 26 26 27 27 27 26 26 26 25 26 25 24 26 27 26 26 28 28 25 22 20 21 24 24 23 24 23 24 23 23 24 24 25 28 26 23 26 29 27 27 26 24 25 26 27 27 26 24 23 22 20 18 19 21 24 26 26 25 23 21 20 21 21 21 22 22 23 24 25 26 26 27
22 25 25 22 22 24 24 25 25 25 27 28 29 30 29 28 28 29 27 25 26 28 28 29 29 27 27 27 26 28 29 29 26 25 25 24 25 26 25 25 25 26 26 26 26 27 28 30 29 25 26 28 28 29 28 25 26 28 29 28 26 25 25 24 22 21 21 24 26 27 26 25 23 22 22 22 22 22 22 23 24 25 26 26 27 27
23 25 27 25 24 24 24 24 24 25 27 27 28 30 30 29 27 28 27 26 27 29 31 32 30 29 30 29 29 29 29 29 29 28 29 28 28 29 27 26 27 26 26 27 27 28 29 30 30 29 27 28 30 31 29 27 28 30 30 29 27 26 27 26 25 23 24 26 27 27 26 26 24 24 24 23 23 24 24 24 25 25 26 27 27 28
24 25 26 25 25 24 24 24 25 27 29 29 29 29 29 28 28 29 29 30 30 30 30 31 30 31 32 30 31 31 31 32 32 30 31 32 32 32 30 28 29 28 27 28 28 28 28 29 31 31 29 28 30 32 31 28 28 30 31 31 28 27 28 28 27 26 26 27 27 27 27 27 26 26 26 25 25 25 25 25 26 26 26 27 28 29
24 24 25 26 25 24 22 24 25 26 27 29 30 30 30 30 30 31 32 33 33 31 31 31 31 30 31 31 31 31 32 34 35 33 33 34 34 33 31 29 30 30 29 28 28 29 29 30 32 32 30 29 30 32 32 29 27 30 33 32 29 28 28 29 28 28 28 28 28 28 28 27 27 27 27 27 27 26 26 27 27 27 27 28 29 30
24 24 24 25 26 24 22 23 25 25 26 27 26 25 26 28 30 31 33 35 35 33 31 31 30 27 28 30 30 29 30 30 31 32 32 33 34 34 33 31 31 30 28 27 28 29 30 31 32 32 32 31 31 32 34 32 30 31 34 33 30 29 29 30 30 29 29 30 30 30 28 27 28 28 28 28 28 27 27 28 28 28 28 28 29 31
25 23 23 25 25 25 24 24 26 27 28 28 26 23 22 25 27 28 29 30 31 31 29 27 27 26 26 27 28 28 29 27 26 28 30 31 33 35 34 32 32 32 31 31 31 31 31 32 32 31 32 32 32 33 34 34 32 32 34 33 31 31 31 31 30 30 30 31 31 31 29 29 29 29 29 28 28 28 28 29 30 29 29 29 30 31
25 23 22 24 25 26 25 24 25 28 29 29 31 30 29 28 28 28 27 26 27 29 27 23 24 26 25 26 27 28 29 27 27 29 29 29 31 33 33 32 31 31 33 34 34 34 33 33 32 32 31 31 31 32 33 34 32 32 33 33 31 31 32 32 31 31 32 31 31 31 30 30 31 30 29 28 28 28 29 30 30 30 30 31 31 31
25 24 23 24 25 25 25 22 22 25 26 26 27 29 29 30 31 30 30 29 30 30 28 25 26 28 29 30 29 28 29 30 31 29 28 29 31 32 33 33 32 32 33 32 32 33 33 33 32 32 32 31 31 32 33 32 31 31 33 34 32 32 33 32 31 32 33 32 31 31 30 31 31 30 29 28 28 29 30 30 30 30 31 32 32 31
25 23 23 24 24 23 24 23 21 23 24 24 24 24 25 27 29 29 30 30 31 32 31 30 31 32 34 34 33 33 33 33 33 31 29 30 31 31 32 32 32 33 33 34 34 33 34 34 31 30 31 31 31 32 31 30 30 32 34 34 33 33 34 33 33 33 32 32 32 31 31 31 31 30 29 29 29 30 31 31 31 31 32 33 33 32
24 22 22 25 24 21 22 23 22 23 24 23 22 22 23 24 26 27 27 28 29 30 30 32 33 33 35 36 36 37 36 34 33 33 32 32 32 30 29 29 28 28 29 30 32 32 34 35 32 30 29 29 29 29 29 30 32 34 34 33 33 34 34 34 34 33 32 32 32 31 31 31 31 30 30 30 31 32 31 31 31 32 33 33 33 32
24 22 21 24 24 20 20 22 21 22 24 23 21 21 22 23 24 25 25 26 28 29 29 31 31 31 32 33 33 34 35 32 31 33 33 32 32 29 27 26 25 25 26 27 27 28 29 31 32 30 29 27 25 25 27 29 31 33 33 33 34 35 35 35 35 33 32 32 31 31 31 31 31 31 31 32 32 31 31 31 32 33 34 34 34 33
23 22 20 22 24 19 19 21 21 22 24 22 21 22 21 21 22 23 24 26 26 26 27 28 29 30 30 29 29 30 31 30 30 31 30 30 29 27 26 24 23 24 25 25 26 26 25 27 29 28 28 26 25 26 28 28 29 31 32 34 35 36 36 36 35 34 33 32 32 32 32 32 32 32 32 32 31 31 31 32 33 33 34 35 35 34
24 24 22 22 22 20 19 21 21 21 22 20 19 20 21 22 22 22 22 23 23 24 25 26 26 28 29 28 26 26 27 27 26 24 23 24 25 24 24 24 24 25 24 22 23 25 26 27 27 26 27 28 28 29 28 28 30 32 33 34 35 35 36 36 36 35 33 33 33 33 34 33 32 32 31 31 30 31 32 32 33 34 35 35 35 34
25 24 22 22 22 21 20 21 22 20 19 20 19 18 19 21 22 21 20 21 22 23 24 23 22 24 25 25 23 22 22 22 20 18 20 22 23 23 23 24 24 24 23 21 20 21 22 24 25 26 27 29 29 29 30 30 31 32 33 34 34 35 36 36 36 35 34 33 33 34 33 32 31 30 30 30 30 31 32 33 33 34 35 35 35 34
26 24 23 22 23 22 20 20 22 20 20 22 22 20 20 20 21 21 20 19 20 21 21 20 19 20 21 21 21 18 16 15 15 19 22 23 22 21 20 20 20 20 20 20 20 20 21 22 24 25 26 28 29 30 31 30 31 32 33 34 34 36 37 37 36 35 34 33 33 33 32 30 30 29 29 30 31 31 32 33 34 34 35 35 34 33
27 26 26 24 24 23 22 22 23 22 23 24 23 22 22 21 21 22 21 20 21 21 20 20 20 19 17 16 16 15 14 15 17 21 22 21 19 18 17 17 18 19 19 21 22 23 24 24 25 26 27 28 29 30 30 30 30 32 33 33 34 35 36 36 35 34 33 32 31 31 30 30 29 29 29 30 30 31 32 33 34 34 34 33 33 32
29 27 26 25 24 23 24 25 24 24 24 24 24 24 24 22 20 21 21 21 22 22 22 22 22 21 18 16 16 18 20 21 21 22 21 20 20 20 19 19 19 19 19 19 20 21 22 23 24 26 27 28 29 31 32 31 31 32 33 33 33 34 35 34 33 32 32 30 29 30 29 29 29 29 29 30 30 31 32 32 33 32 32 31 31 31
28 27 25 26 25 22 23 26 25 24 24 23 23 24 25 24 24 24 24 24 24 23 23 22 22 22 21 20 21 23 23 23 23 23 22 22 22 22 22 22 22 22 21 21 22 23 24 25 26 27 27 28 30 32 32 31 31 33 33 33 33 33 33 33 31 31 30 29 29 29 28 29 29 29 29 29 30 30 31 31 31 30 29 29 29 29
27 27 27 27 25 23 24 25 25 25 25 24 24 25 25 26 26 26 25 24 23 22 22 21 22 23 23 23 23 24 24 24 25 24 24 24 25 25 25 26 26 24 24 25 27 28 29 30 30 29 29 29 30 32 32 30 30 32 32 32 32 32 32 32 31 31 30 29 29 28 28 29 29 29 29 29 29 29 29 29 29 28 27 28 28 29
26 26 27 26 24 24 25 25 24 25 26 26 26 26 26 26 26 25 22 20 19 21 22 21 21 22 22 22 22 22 24 24 25 25 25 26 28 28 29 28 28 27 28 28 29 29 30 31 31 30 29 29 29 30 30 29 29 29 30 31 31 31 32 31 31 31 30 30 29 29 28 29 29 29 28 28 28 28 28 27 26 26 27 27 28 28
26 25 25 25 25 24 24 23 23 24 26 26 25 25 25 26 27 27 25 23 22 22 22 20 20 21 21 21 21 21 22 24 26 27 27 27 28 28 29 28 28 28 29 29 29 28 27 27 28 28 28 29 29 30 30 29 29 28 28 29 30 31 32 32 31 31 31 30 30 29 28 29 29 28 27 27 27 27 26 26 25 25 26 27 26 26
25 24 23 24 24 23 23 24 25 25 26 26 25 25 27 27 27 27 28 28 29 28 26 25 25 25 24 23 23 24 26 27 27 28 28 28 28 28 28 28 29 29 29 29 30 29 27 27 27 28 29 29 29 30 30 29 29 29 28 28 28 28 30 31 31 31 31 30 29 29 28 28 28 27 27 26 26 25 25 25 25 25 25 25 25 25
22 22 23 23 22 22 23 24 25 25 26 27 27 27 27 27 27 27 28 28 29 30 30 30 30 30 30 29 29 29 29 28 28 27 27 27 28 28 28 29 30 30 30 30 30 29 28 27 26 27 29 29 29 30 31 30 30 30 29 28 28 27 28 29 29 30 30 30 29 28 28 27 27 26 26 25 25 25 24 24 24 24 24 24 23 24
20 21 22 22 20 21 21 21 22 23 24 26 28 28 28 28 27 28 28 28 27 27 29 31 32 33 34 34 33 32 30 29 29 29 30 30 29 30 30 30 31 31 30 29 29 29 28 27 26 26 27 27 27 29 30 30 31 31 30 29 28 28 28 28 28 29 29 29 28 28 27 26 26 26 25 24 24 24 24 23 23 24 23 22 22 23
21 21 21 20 18 18 19 20 21 21 22 25 27 28 29 29 29 28 28 28 27 27 27 28 30 31 32 33 33 33 32 31 32 32 32 32 31 31 30 30 29 29 29 28 28 28 27 27 26 26 25 25 27 28 30 31 31 31 31 30 29 28 28 27 27 28 28 28 27 27 26 26 26 25 25 23 23 23 23 23 23 23 22 21 21 21
21 21 21 21 20 19 18 18 19 21 22 24 25 26 27 28 29 29 28 28 28 27 26 26 26 27 29 30 31 32 31 31 32 32 31 31 30 30 29 28 27 27 28 28 28 27 27 27 27 26 25 26 28 29 30 31 31 31 30 30 29 28 27 27 27 27 27 27 27 26 26 25 25 25 24 23 22 22 22 22 21 21 21 20 20 21
19 21 20 21 21 20 19 19 21 22 24 25 25 26 26 26 27 27 28 29 28 25 25 25 25 25 26 27 28 29 29 29 30 30 30 30 29 28 27 27 26 26 27 28 27 27 27 26 26 26 26 27 28 29 29 30 31 30 30 30 29 27 27 27 26 26 25 26 26 26 25 25 24 24 23 22 21 21 21 20 20 20 19 19 19 20
15 19 21 21 20 20 20 22 24 24 24 24 25 25 26 26 27 28 29 30 29 26 25 24 24 24 24 22 23 26 27 27 27 28 28 27 27 26 26 26 26 26 27 27 27 27 28 26 25 26 28 28 28 29 29 29 29 28 28 29 28 27 26 26 26 25 25 26 26 25 25 24 24 23 22 21 21 20 19 19 19 19 18 18 18 19
15 18 19 20 20 19 20 23 24 24 24 24 25 26 27 27 27 28 29 30 30 29 27 25 24 25 23 20 20 23 25 26 26 27 27 26 26 26 27 26 27 27 28 27 27 27 28 28 28 29 30 29 29 30 29 28 28 27 27 28 27 26 26 27 26 25 25 26 26 25 24 24 23 22 21 21 20 19 18 18 18 18 18 17 18 18
15 16 17 19 20 20 20 22 24 26 26 27 28 28 27 27 26 26 27 27 27 27 27 26 26 25 24 22 22 22 23 23 24 25 26 27 28 28 28 27 27 27 27 27 27 27 27 28 29 30 30 30 30 30 29 28 27 26 26 26 26 26 26 26 25 25 26 26 25 24 23 23 22 21 20 20 19 18 17 16 16 17 17 17 17 18
Wind_Direction
236 238 239 238 239 236 236 234 229 215 193 218 224 215 231 253 248 238 249 269 280 279 274 270 263 247 250 249 251 290 288 278 263 273 286 289 287 294 286 274 277 288 292 296 306 311 312 315 320 324 330 332 333 336 337 329 309 280 266 270 257 233 227 231 239 241 248 257 264 268 270 270 266 256 246 238 238 249 261 258 242 234 236 240 241 241
232 232 238 235 237 229 230 262 245 220 215 231 221 199 201 228 236 221 218 261 287 282 273 270 264 255 257 244 205 244 265 275 275 264 275 284 285 292 287 277 277 285 290 293 304 312 311 310 312 316 326 332 332 333 334 334 320 292 263 258 255 240 231 228 234 238 243 249 255 261 265 270 271 263 255 248 245 247 258 272 260 236 232 232 234 236
232 231 246 239 246 236 215 254 242 219 226 240 227 205 212 230 235 223 204 216 265 275 277 273 262 255 258 250 234 234 243 265 282 267 264 275 284 291 289 286 284 284 289 293 303 313 309 303 305 312 323 331 331 331 331 333 327 312 289 271 264 255 247 237 236 240 246 253 257 260 264 268 270 268 262 259 257 256 259 266 270 260 240 230 228 229
238 230 271 251 262 261 235 251 241 220 231 244 229 221 230 238 230 231 232 234 249 260 267 272 269 261 255 253 265 269 249 255 279 278 269 272 283 293 291 292 292 285 287 293 301 308 308 302 302 309 319 327 329 329 328 330 328 321 309 298 288 278 268 256 249 248 252 258 262 264 267 270 271 270 267 264 265 266 267 267 268 268 264 252 239 232
245 216 246 238 240 250 245 266 256 225 234 242 234 233 236 235 229 229 240 253 260 259 257 265 278 273 261 252 249 259 263 260 267 279 289 287 291 299 295 294 296 289 287 293 300 304 308 304 300 306 313 320 327 326 324 325 325 322 316 311 304 297 288 277 267 260 257 260 262 265 268 272 273 272 272 269 268 271 272 272 271 269 268 268 265 257
244 241 247 256 260 252 249 259 248 230 238 243 241 246 246 239 230 224 235 257 266 269 266 266 275 277 267 256 239 238 249 249 249 258 270 279 293 301 294 294 298 296 290 293 299 302 307 305 299 303 306 312 320 322 322 319 317 317 313 311 308 305 299 290 282 275 271 265 260 261 262 264 267 268 271 270 269 271 272 271 271 270 270 270 269 267
229 243 236 235 256 257 257 252 243 239 241 243 242 249 261 257 242 228 229 244 250 255 262 262 271 274 262 253 250 250 245 231 238 243 241 263 289 294 290 292 292 293 291 293 298 299 304 304 298 299 301 305 311 315 319 315 311 309 303 300 297 296 295 290 288 285 283 278 270 262 256 255 253 253 259 262 264 266 267 266 264 265 267 268 268 268
238 247 234 231 245 258 260 247 243 246 244 243 235 230 246 252 252 249 249 255 256 255 257 256 266 273 265 255 255 261 257 239 238 247 253 268 282 285 289 289 287 291 293 294 297 295 299 301 297 297 297 300 301 304 311 312 309 304 299 296 291 290 289 286 287 285 282 281 278 271 262 253 246 242 243 246 249 253 255 256 255 255 257 259 262 264
253 254 241 247 259 265 261 249 244 249 252 253 233 229 241 236 233 245 251 256 259 261 260 257 258 263 264 260 258 264 265 254 248 257 268 275 276 278 285 285 285 292 294 294 294 292 296 297 296 296 295 296 295 294 298 302 305 304 300 297 291 290 287 284 286 284 282 282 280 278 272 264 253 244 240 238 240 241 243 246 247 248 249 251 254 256
255 255 257 266 267 260 255 249 243 237 237 238 230 229 239 240 235 235 237 240 248 255 257 251 246 254 262 260 255 258 261 260 255 260 272 278 276 276 279 280 283 288 292 294 294 292 294 294 295 296 293 292 291 289 288 289 292 295 295 295 290 285 281 278 277 279 281 282 281 280 276 273 267 260 254 249 248 247 245 245 244 245 246 246 247 249
251 259 266 268 263 260 257 257 260 252 238 232 234 235 236 239 238 235 235 239 247 251 251 247 243 252 259 256 251 251 253 254 250 255 270 274 272 275 279 279 278 284 290 292 292 293 292 291 293 293 290 290 289 288 287 284 284 284 286 287 283 278 274 273 272 273 277 279 281 281 278 275 270 266 263 258 256 255 254 252 249 247 246 245 245 246
255 259 262 263 266 266 261 262 269 268 258 249 246 247 249 250 248 247 248 249 253 255 255 252 247 252 257 258 259 253 251 256 256 259 266 268 267 272 280 282 275 278 286 288 290 292 290 289 289 289 289 290 289 289 288 285 283 281 282 283 281 278 274 274 274 273 273 274 277 280 281 279 274 269 266 262 260 257 255 255 253 251 249 248 247 246
266 266 264 263 268 269 265 264 264 263 267 271 260 253 257 263 260 256 254 250 253 257 255 246 243 248 253 256 257 251 253 264 266 261 258 258 262 269 280 282 274 277 284 286 288 290 290 287 286 287 290 292 292 290 289 287 285 283 282 283 282 281 279 277 276 274 271 271 272 275 278 280 278 273 268 265 262 259 257 255 253 252 251 250 249 249
272 268 263 257 258 268 273 269 265 266 273 281 270 256 257 262 261 257 252 247 251 254 246 237 239 242 244 251 252 244 244 251 258 264 264 262 265 272 279 278 274 278 282 283 285 288 288 286 285 286 288 292 295 294 292 290 287 286 286 285 285 284 282 279 276 274 272 269 268 271 273 275 276 273 268 265 263 261 260 258 257 256 254 253 253 252
273 266 263 260 260 270 277 270 266 272 278 280 274 263 259 259 259 261 257 249 249 249 242 236 241 245 247 254 252 245 245 247 253 265 270 270 270 273 275 273 274 279 279 279 283 285 285 286 285 284 285 289 294 295 295 293 291 290 289 288 288 286 284 282 278 276 275 273 272 270 270 271 272 270 268 266 264 263 262 262 261 260 259 259 258 258
275 270 265 267 269 273 274 272 273 277 278 276 267 260 260 258 251 253 254 250 249 249 245 241 246 250 252 256 258 258 258 255 258 264 268 271 272 272 270 269 272 277 277 276 278 280 281 281 280 281 283 286 290 292 293 294 293 293 291 290 288 286 285 284 282 281 280 279 278 275 272 270 268 268 268 266 266 266 266 265 264 264 263 263 262 262
280 276 272 272 272 273 271 268 271 275 275 269 266 263 260 255 250 252 256 253 251 252 251 249 252 254 253 256 260 264 261 255 257 263 266 270 273 272 271 269 268 271 273 274 275 277 278 277 278 281 282 283 286 288 290 292 292 292 293 291 290 289 288 286 285 284 282 281 279 276 274 269 266 265 266 267 269 269 269 268 266 264 263 263 263 263
283 279 275 273 272 270 270 268 268 271 269 268 272 270 264 260 255 254 257 256 254 256 257 254 255 257 257 257 256 252 250 250 251 253 258 265 270 271 269 266 265 266 269 271 272 274 276 275 275 278 280 282 284 284 286 289 288 289 293 293 292 292 290 289 287 284 281 279 276 275 272 269 267 266 267 270 271 270 269 267 266 266 265 265 265 265
288 286 280 273 273 272 270 270 270 270 269 268 269 267 266 265 258 251 254 256 255 258 262 259 258 259 258 258 258 254 251 250 248 249 253 260 265 266 266 265 263 263 266 268 267 269 273 273 272 276 281 283 284 282 284 287 284 285 291 294 293 294 293 290 287 284 281 277 274 272 270 270 271 273 275 275 273 271 270 269 268 268 269 269 269 268
292 292 287 279 276 274 271 272 272 270 270 269 266 267 269 268 261 255 255 257 258 261 264 263 260 259 259 260 261 261 258 254 250 246 246 252 257 260 263 264 264 264 264 263 264 268 272 273 273 277 281 283 283 282 283 285 283 284 291 295 294 294 295 292 288 285 281 277 272 269 269 272 274 277 278 276 272 271 271 272 272 272 272 273 272 271
289 288 286 280 276 276 274 274 274 270 268 267 266 267 268 269 265 258 254 256 260 263 264 263 262 261 263 265 264 263 263 260 252 245 243 248 255 258 260 262 264 265 263 261 264 268 271 274 275 274 276 279 282 281 281 282 282 284 291 294 293 294 294 292 290 286 281 277 272 269 270 273 276 277 277 275 273 272 273 274 274 274 274 273 273 272
288 286 285 281 278 278 277 277 275 268 263 262 265 265 267 270 265 255 254 254 256 263 265 265 266 264 265 270 270 267 266 263 257 255 258 258 257 259 261 262 263 264 264 263 263 265 267 271 273 271 271 276 280 281 281 281 282 286 289 291 292 294 293 291 290 287 282 277 274 274 275 276 277 278 277 276 276 276 276 275 275 275 275 274 274 273
289 287 287 285 282 278 276 274 268 262 263 265 266 266 267 266 257 249 253 255 258 265 266 263 265 268 270 272 272 270 268 267 266 266 267 264 261 262 263 262 263 264 266 266 263 263 266 270 272 271 272 275 278 280 280 280 283 286 288 289 292 294 294 292 290 287 282 279 278 278 278 278 279 279 277 277 277 277 277 277 277 277 277 278 278 278
294 292 291 289 285 280 276 273 265 262 267 269 266 265 264 260 252 250 255 259 262 264 262 262 268 273 274 272 270 269 268 268 268 268 268 267 265 267 265 262 262 264 265 267 265 263 265 269 273 273 272 272 275 278 279 278 281 284 285 288 291 294 293 291 289 286 284 282 281 280 279 280 280 278 277 277 276 277 278 278 279 279 279 279 280 280
299 299 297 293 289 285 278 273 267 266 269 270 267 263 259 256 255 257 259 259 261 260 259 264 270 273 273 271 270 269 268 267 269 269 270 268 266 266 266 264 264 265 265 264 264 263 264 266 270 272 272 273 275 278 278 278 280 281 283 286 290 291 290 289 288 286 284 283 281 280 279 279 279 277 276 276 276 277 279 281 282 282 280 279 279 280
303 304 300 296 294 293 286 276 271 270 268 269 266 257 253 254 257 261 260 258 261 262 261 263 265 264 266 269 271 271 269 270 272 272 270 268 266 265 268 269 267 265 265 263 263 264 264 265 267 269 271 274 276 276 278 280 282 281 282 285 288 289 288 287 287 286 285 284 283 282 281 281 278 276 275 275 276 278 281 283 284 283 281 281 282 283
305 305 300 296 296 296 292 283 276 272 269 266 260 255 256 259 259 260 259 258 262 262 259 261 262 261 262 266 269 271 271 272 274 275 274 272 270 268 268 270 267 263 263 265 266 267 266 267 268 269 271 274 275 275 277 281 282 280 282 285 287 288 288 287 288 288 286 285 285 284 284 282 280 278 278 277 278 280 283 285 285 284 284 286 287 287
305 307 302 298 299 298 294 288 282 278 274 267 261 259 262 263 262 262 261 262 264 261 258 262 267 267 267 269 270 269 271 275 278 278 276 274 273 270 267 267 266 264 266 268 269 267 266 267 269 270 272 273 273 274 277 279 279 279 282 285 287 287 287 287 288 288 286 284 285 285 284 282 281 281 281 280 281 284 285 286 285 285 288 291 290 289
306 308 304 299 300 300 296 292 289 287 282 274 265 261 261 262 263 265 266 268 269 265 264 266 267 269 271 273 272 269 270 278 283 280 277 274 273 273 271 270 268 266 266 267 268 268 268 268 268 270 273 271 270 272 275 275 275 278 282 286 287 286 286 287 287 286 285 285 285 285 284 283 282 282 282 283 285 286 286 285 285 288 291 292 292 290
307 307 304 299 299 300 296 292 289 289 286 279 271 267 265 264 264 266 268 269 270 269 269 269 270 272 272 271 271 270 271 277 279 277 276 276 276 276 275 274 271 266 263 265 268 270 271 269 268 269 271 270 270 272 272 270 272 278 283 285 286 286 286 287 286 284 285 285 285 285 284 283 283 283 284 286 286 286 286 285 287 290 292 292 292 292
309 308 305 300 299 300 296 292 288 287 287 283 275 272 271 268 266 266 268 269 269 269 269 271 272 272 272 271 271 270 272 274 273 273 275 276 277 278 278 277 272 265 263 265 267 267 269 269 269 269 269 271 273 272 269 269 274 279 282 282 283 284 286 286 285 285 285 285 285 285 285 285 285 286 287 287 286 285 286 286 289 291 292 292 292 292
310 309 306 300 300 303 297 292 289 289 290 288 282 278 275 272 270 268 267 267 268 270 271 271 271 271 273 274 272 270 270 270 269 272 275 276 275 274 275 276 271 263 263 266 267 266 269 271 271 269 269 272 274 272 270 272 276 277 278 279 282 284 285 284 284 285 286 286 286 286 286 286 287 287 287 286 286 286 287 288 290 292 292 292 292 292
312 312 309 299 299 304 301 295 292 291 291 291 288 281 276 274 272 269 268 265 266 271 273 271 271 271 271 271 270 269 268 266 266 269 271 273 273 270 269 269 265 261 264 269 271 269 268 270 272 273 271 269 268 271 275 276 275 275 278 280 282 283 284 283 284 286 287 288 289 289 288 288 287 287 287 286 287 287 288 289 291 292 292 292 292 292
311 312 309 301 298 301 302 298 297 297 295 294 290 283 279 278 274 271 272 268 264 266 269 270 272 273 272 270 267 264 265 267 267 263 259 261 266 268 268 266 261 261 266 272 274 270 265 264 270 273 273 272 270 271 273 273 274 278 280 281 281 283 284 284 285 287 288 289 289 288 287 287 287 287 287 288 289 289 289 290 292 292 292 292 292 292
309 309 306 301 298 300 303 300 300 303 301 294 289 286 284 281 276 274 276 273 266 265 268 270 274 276 275 270 264 262 267 270 262 248 248 259 267 271 269 265 263 264 266 267 267 266 265 266 268 269 271 274 275 274 273 274 278 281 281 282 283 284 285 286 287 287 288 287 286 285 286 286 286 287 288 289 289 290 291 292 292 293 293 292 292 292
307 307 305 301 298 300 304 301 299 303 301 294 291 292 291 289 284 282 282 278 271 270 270 270 273 277 275 270 267 265 264 263 252 247 257 269 272 270 267 264 266 269 268 264 262 267 274 275 273 272 273 275 277 276 276 278 281 281 281 282 283 284 284 285 286 287 286 285 284 284 285 286 286 287 288 289 289 290 291 292 292 293 293 293 293 293
306 305 304 302 300 301 301 297 298 302 299 293 292 292 292 295 294 288 285 282 278 275 273 271 272 277 276 268 264 259 252 252 256 259 267 272 270 267 266 266 273 277 273 268 269 274 277 277 276 276 277 277 277 278 278 279 280 280 280 281 281 282 283 284 285 285 284 284 284 285 285 286 287 287 288 288 289 290 291 292 293 293 293 293 293 293
306 306 305 303 303 302 300 297 298 301 298 294 293 291 289 292 295 293 291 289 286 282 278 275 274 277 275 264 257 258 260 263 265 266 268 269 268 269 269 271 280 283 275 269 272 277 278 279 279 280 278 277 278 279 279 279 279 278 279 279 280 280 281 282 284 284 283 283 284 284 284 285 286 286 287 288 289 290 292 293 294 294 293 293 293 294
307 307 307 306 305 303 301 300 299 299 297 295 292 289 287 288 289 293 295 295 293 289 284 279 276 275 273 267 262 262 265 267 268 266 266 267 269 270 271 274 282 281 271 266 271 276 279 282 282 281 280 280 281 281 281 281 279 279 280 281 280 280 281 283 283 283 284 284 284 283 284 285 286 286 287 288 290 292 294 295 294 294 293 293 294 295
311 309 309 309 308 305 301 299 298 297 297 296 294 292 292 290 287 291 297 298 296 294 290 284 278 274 272 270 266 263 263 266 267 267 268 270 272 275 275 278 280 277 270 268 271 276 280 283 283 282 281 281 282 282 282 282 280 281 282 282 282 282 282 283 283 283 284 284 283 284 284 285 285 285 286 289 292 294 296 296 294 294 294 295 296 297
310 309 310 311 310 307 304 300 300 300 298 297 296 296 296 294 290 290 294 294 291 291 291 288 280 272 269 268 266 264 263 265 269 271 270 270 271 273 275 276 276 274 272 273 275 278 280 281 282 283 283 282 282 282 283 283 282 282 283 282 282 282 282 282 282 283 284 284 283 283 283 284 284 284 286 290 294 296 296 294 294 295 297 299 299 299
308 308 310 310 309 307 304 302 303 303 299 297 298 297 297 295 292 290 287 282 282 285 285 280 273 268 264 261 262 265 268 272 276 275 273 271 271 273 275 275 275 275 277 280 280 280 280 281 282 283 284 284 284 284 284 284 284 283 283 283 283 283 283 283 283 283 284 283 282 282 282 282 282 284 287 291 294 295 295 293 294 297 299 300 300 301
311 312 313 310 307 305 303 305 307 303 297 296 297 297 296 292 290 291 287 280 278 281 281 278 275 273 272 268 267 271 275 278 278 276 274 274 274 276 278 279 279 280 281 283 283 283 283 284 284 285 284 284 284 284 284 285 285 285 285 286 285 285 284 284 284 284 283 282 281 280 279 280 282 284 288 291 293 294 294 293 295 299 300 300 301 304
309 313 313 311 308 305 305 309 310 305 300 298 296 296 296 292 288 287 286 283 281 280 280 279 278 277 278 277 277 279 279 277 274 273 275 276 277 278 279 280 280 281 281 282 283 284 284 284 284 284 283 283 284 284 285 286 287 287 287 288 287 286 284 283 283 282 281 281 280 279 278 279 282 284 287 290 293 293 293 293 295 298 299 300 303 306
307 308 308 309 308 306 307 311 310 307 305 301 296 294 293 291 289 287 284 282 283 283 281 279 278 278 279 280 279 279 278 275 272 273 276 278 279 279 279 279 280 280 281 282 282 284 285 285 285 285 284 284 285 286 286 287 287 287 287 287 287 286 284 283 283 282 280 278 277 277 278 280 282 284 287 290 291 292 292 293 294 297 298 299 303 307
308 304 299 301 304 303 307 312 311 309 307 302 298 295 291 288 289 289 283 279 280 282 280 278 279 279 279 279 278 277 277 276 277 278 279 280 280 279 280 281 282 282 283 283 284 285 285 286 287 287 285 286 288 289 288 288 287 286 286 286 286 285 284 282 282 281 280 278 276 276 278 280 282 285 288 290 291 291 290 291 293 295 296 299 304 307
312 307 297 294 296 297 303 309 309 310 309 304 299 297 292 288 288 287 282 276 276 277 277 279 284 285 282 278 277 277 278 278 279 280 280 280 280 281 282 282 283 285 285 285 286 286 287 289 290 287 284 287 291 292 291 289 287 286 284 284 284 284 282 281 280 280 279 277 275 275 278 281 283 285 288 290 290 290 289 289 292 293 295 299 304 307
318 316 307 298 295 295 299 302 304 308 310 305 300 297 293 290 288 286 282 277 276 281 284 284 287 290 287 282 278 278 278 278 278 278 279 280 281 282 283 284 285 285 285 285 286 287 287 290 290 286 285 288 293 295 294 292 289 286 284 284 283 282 280 280 280 281 279 277 276 276 278 280 283 285 287 289 289 288 287 288 290 292 294 299 304 307
320 318 313 308 304 300 299 300 303 307 309 306 302 298 295 291 287 284 281 277 277 283 288 286 283 286 288 286 283 281 279 278 278 278 279 280 282 282 284 285 285 284 283 284 285 285 285 286 284 283 286 290 294 296 296 293 289 286 284 283 281 279 279 280 282 282 280 278 277 277 277 280 283 285 287 288 287 285 284 287 289 290 293 299 304 307
320 313 311 313 314 308 303 302 303 306 307 306 304 301 298 294 291 286 282 278 277 279 282 281 280 281 281 279 278 279 280 279 279 280 280 282 283 284 284 284 283 282 281 282 284 284 284 283 281 281 285 289 293 295 295 292 288 286 284 282 280 278 278 281 283 284 282 280 278 276 276 279 282 283 285 286 284 282 283 285 288 290 293 298 303 306
323 314 312 317 319 315 309 307 306 306 305 304 304 303 298 295 294 291 286 281 278 277 276 278 278 277 275 273 273 275 279 281 282 282 283 283 283 282 282 281 280 280 280 281 282 282 282 283 283 282 283 287 292 293 292 290 288 284 282 281 280 279 281 283 284 284 284 282 277 274 274 277 279 281 283 283 282 282 283 284 287 289 293 297 301 304
Height
5755 5756 5757 5758 5759 5761 5761 5762 5764 5764 5765 5767 5768 5769 5772 5774 5775 5778 5776 5770 5768 5768 5767 5767 5766 5768 5768 5768 5771 5768 5761 5762 5765 5762 5760 5761 5760 5760 5759 5755 5754 5755 5753 5753 5753 5752 5751 5750 5748 5747 5746 5745 5743 5742 5741 5740 5739 5739 5739 5740 5740 5740 5740 5741 5741 5742 5742 5742 5743 5744 5745 5746 5747 5748 5750 5752 5753 5754 5755 5756 5757 5758 5759 5761 5763 5765
5753 5755 5756 5757 5758 5759 5760 5762 5763 5763 5763 5762 5762 5766 5768 5771 5773 5774 5775 5771 5766 5765 5766 5765 5763 5764 5765 5766 5769 5768 5761 5759 5762 5761 5758 5758 5758 5758 5756 5752 5753 5754 5752 5751 5751 5750 5750 5749 5749 5748 5746 5744 5743 5742 5741 5740 5739 5738 5738 5738 5738 5738 5738 5739 5740 5740 5740 5741 5741 5742 5743 5745 5745 5747 5748 5749 5751 5752 5753 5755 5756 5756 5758 5759 5761 5763
5752 5754 5754 5755 5757 5757 5760 5762 5760 5759 5759 5759 5761 5764 5764 5766 5768 5768 5770 5772 5768 5765 5765 5762 5760 5761 5763 5763 5764 5765 5762 5758 5757 5757 5756 5756 5756 5755 5752 5750 5751 5751 5750 5750 5749 5748 5748 5748 5748 5747 5745 5744 5742 5741 5741 5740 5739 5737 5737 5736 5736 5736 5737 5737 5738 5738 5738 5739 5739 5740 5742 5743 5744 5745 5746 5747 5749 5750 5751 5753 5755 5756 5756 5757 5759 5760
5752 5753 5754 5755 5755 5755 5758 5758 5754 5755 5756 5757 5760 5761 5761 5762 5765 5767 5768 5770 5767 5765 5765 5762 5758 5759 5760 5760 5760 5760 5760 5758 5754 5753 5754 5754 5754 5754 5750 5748 5750 5749 5748 5748 5747 5746 5746 5746 5745 5744 5743 5742 5741 5740 5740 5739 5738 5737 5736 5735 5735 5735 5735 5736 5736 5736 5736 5736 5737 5738 5739 5740 5742 5743 5744 5746 5746 5747 5749 5750 5753 5754 5755 5756 5757 5758
5751 5752 5752 5753 5753 5754 5755 5754 5752 5753 5755 5756 5757 5757 5759 5760 5761 5764 5766 5767 5764 5761 5762 5761 5757 5757 5757 5757 5758 5758 5757 5756 5754 5752 5751 5750 5750 5751 5748 5745 5747 5747 5746 5745 5745 5744 5744 5744 5743 5742 5741 5741 5740 5739 5738 5738 5737 5737 5735 5735 5734 5734 5734 5734 5734 5734 5734 5735 5735 5736 5736 5737 5739 5740 5741 5743 5744 5745 5746 5748 5750 5751 5753 5754 5755 5756
5751 5751 5751 5751 5752 5752 5752 5751 5751 5752 5752 5753 5755 5756 5757 5758 5759 5761 5763 5764 5763 5759 5760 5760 5756 5755 5756 5755 5756 5757 5755 5756 5756 5753 5752 5750 5747 5748 5746 5742 5743 5745 5744 5743 5743 5743 5742 5742 5741 5740 5740 5739 5739 5738 5737 5737 5736 5736 5735 5735 5734 5734 5734 5733 5733 5733 5733 5733 5734 5734 5734 5735 5736 5737 5738 5740 5741 5742 5743 5745 5747 5748 5750 5751 5753 5754
5749 5750 5749 5749 5749 5749 5749 5749 5750 5750 5751 5751 5753 5755 5756 5756 5756 5756 5758 5759 5758 5758 5758 5757 5755 5753 5754 5753 5753 5753 5753 5755 5755 5753 5752 5750 5746 5746 5745 5741 5740 5743 5743 5741 5742 5741 5740 5740 5738 5738 5738 5737 5737 5737 5736 5736 5736 5735 5735 5734 5734 5733 5733 5733 5733 5732 5732 5732 5732 5733 5733 5733 5734 5735 5736 5737 5738 5739 5740 5741 5743 5745 5747 5748 5750 5751
5745 5746 5746 5746 5746 5746 5746 5747 5748 5747 5748 5749 5752 5754 5754 5754 5754 5754 5755 5755 5754 5754 5754 5753 5753 5751 5750 5750 5750 5750 5750 5751 5751 5749 5748 5747 5744 5744 5743 5740 5738 5739 5741 5740 5739 5739 5738 5737 5736 5736 5736 5736 5736 5736 5735 5735 5735 5734 5734 5733 5733 5733 5733 5732 5732 5732 5732 5732 5732 5732 5732 5732 5732 5733 5734 5735 5736 5736 5737 5739 5740 5742 5743 5745 5747 5748
5743 5744 5744 5744 5744 5746 5745 5745 5745 5745 5746 5748 5749 5750 5750 5750 5751 5751 5751 5750 5750 5750 5748 5750 5751 5749 5747 5748 5748 5748 5747 5748 5747 5745 5744 5744 5743 5742 5741 5740 5738 5737 5738 5738 5738 5737 5736 5735 5734 5734 5734 5734 5734 5734 5734 5734 5733 5733 5732 5732 5732 5732 5732 5732 5732 5731 5731 5731 5731 5731 5731 5731 5731 5731 5732 5733 5733 5734 5735 5736 5737 5738 5740 5741 5743 5745
5742 5742 5742 5742 5742 5744 5744 5742 5742 5742 5743 5745 5744 5743 5744 5745 5746 5746 5745 5746 5746 5744 5743 5746 5748 5746 5745 5745 5746 5746 5745 5745 5744 5742 5741 5741 5740 5739 5739 5738 5737 5735 5734 5735 5735 5734 5734 5734 5733 5733 5732 5731 5731 5732 5732 5732 5732 5732 5731 5731 5731 5731 5730 5731 5731 5731 5730 5730 5730 5730 5730 5730 5730 5730 5730 5731 5731 5732 5733 5734 5734 5735 5736 5738 5739 5741
5739 5740 5740 5740 5740 5740 5740 5738 5738 5739 5739 5740 5738 5738 5739 5740 5740 5740 5740 5741 5741 5738 5739 5742 5744 5743 5742 5742 5742 5742 5742 5742 5742 5740 5740 5739 5738 5736 5736 5736 5736 5734 5732 5732 5732 5732 5732 5732 5731 5731 5730 5729 5729 5729 5730 5730 5730 5730 5730 5730 5730 5730 5730 5729 5729 5729 5729 5729 5728 5728 5729 5729 5728 5728 5728 5729 5729 5730 5730 5731 5732 5732 5733 5734 5735 5736
5736 5737 5738 5738 5736 5737 5736 5735 5736 5736 5736 5736 5735 5735 5736 5735 5736 5735 5736 5737 5735 5734 5737 5739 5740 5740 5738 5738 5739 5739 5738 5737 5738 5738 5738 5738 5736 5734 5733 5734 5734 5732 5730 5729 5729 5729 5730 5730 5730 5729 5728 5727 5727 5727 5727 5727 5728 5728 5728 5728 5728 5728 5728 5728 5728 5727 5727 5727 5727 5726 5726 5726 5726 5726 5726 5726 5727 5727 5728 5728 5729 5729 5729 5730 5731 5732
5735 5735 5735 5735 5734 5733 5733 5733 5734 5733 5733 5733 5733 5734 5733 5732 5732 5732 5732 5733 5731 5732 5735 5736 5736 5736 5735 5735 5736 5736 5736 5735 5734 5734 5735 5734 5733 5733 5732 5731 5731 5730 5729 5727 5725 5727 5728 5728 5728 5727 5726 5725 5725 5725 5725 5725 5725 5725 5726 5726 5726 5726 5726 5726 5726 5725 5725 5725 5724 5724 5724 5724 5724 5723 5723 5723 5723 5724 5724 5725 5725 5726 5726 5726 5727 5728
5734 5734 5733 5733 5732 5731 5731 5731 5731 5731 5731 5731 5731 5732 5731 5730 5729 5728 5729 5729 5729 5730 5732 5732 5731 5730 5731 5732 5733 5733 5734 5734 5731 5730 5731 5731 5730 5731 5730 5729 5728 5727 5728 5726 5723 5723 5725 5725 5725 5725 5724 5724 5723 5723 5722 5723 5723 5723 5723 5723 5724 5723 5723 5723 5723 5723 5722 5722 5722 5721 5721 5721 5720 5720 5720 5720 5720 5720 5721 5721 5722 5722 5722 5723 5723 5724
5731 5731 5731 5731 5730 5729 5729 5729 5729 5729 5729 5729 5729 5729 5728 5727 5727 5726 5726 5726 5726 5726 5727 5728 5727 5727 5729 5729 5729 5730 5730 5730 5729 5727 5728 5727 5727 5729 5729 5727 5725 5724 5725 5724 5721 5720 5722 5723 5722 5722 5723 5722 5721 5721 5720 5720 5720 5720 5720 5720 5721 5721 5721 5721 5720 5720 5719 5719 5719 5718 5718 5718 5717 5717 5717 5717 5717 5717 5717 5718 5718 5718 5719 5719 5720 5720
5729 5729 5729 5728 5728 5728 5728 5727 5726 5727 5727 5727 5727 5726 5725 5726 5724 5722 5722 5723 5723 5723 5723 5725 5725 5725 5727 5726 5725 5726 5726 5727 5727 5726 5725 5723 5723 5725 5725 5725 5723 5721 5721 5722 5720 5718 5719 5721 5720 5720 5720 5719 5719 5718 5718 5718 5718 5718 5718 5718 5718 5718 5718 5718 5718 5717 5717 5716 5716 5715 5715 5715 5714 5714 5714 5714 5714 5714 5714 5714 5715 5715 5715 5716 5716 5717
5726 5726 5726 5725 5726 5726 5726 5725 5724 5724 5725 5725 5724 5724 5723 5723 5722 5720 5719 5721 5721 5720 5720 5723 5723 5723 5724 5723 5722 5723 5722 5723 5724 5723 5722 5720 5720 5721 5721 5722 5721 5719 5719 5719 5718 5716 5716 5718 5718 5717 5717 5717 5716 5716 5716 5716 5715 5715 5715 5715 5715 5715 5715 5715 5715 5714 5714 5714 5713 5713 5712 5712 5711 5711 5711 5711 5711 5712 5711 5711 5711 5712 5712 5712 5712 5713
5723 5723 5724 5723 5722 5723 5723 5722 5723 5723 5723 5722 5722 5722 5720 5719 5720 5719 5717 5718 5719 5717 5718 5721 5720 5720 5720 5719 5719 5719 5718 5719 5720 5720 5718 5717 5717 5717 5718 5718 5718 5718 5717 5717 5717 5714 5713 5715 5716 5715 5715 5714 5714 5713 5713 5713 5713 5713 5712 5712 5712 5713 5713 5712 5712 5712 5712 5711 5711 5710 5709 5709 5708 5709 5709 5709 5709 5709 5708 5708 5708 5708 5708 5708 5709 5709
5719 5719 5721 5720 5719 5720 5720 5719 5719 5720 5719 5720 5720 5719 5717 5717 5717 5716 5715 5716 5716 5715 5716 5717 5718 5718 5716 5714 5715 5716 5715 5715 5715 5715 5715 5715 5714 5714 5714 5715 5714 5715 5715 5715 5715 5712 5710 5711 5713 5713 5712 5711 5711 5710 5710 5710 5710 5710 5709 5709 5709 5709 5709 5709 5709 5709 5709 5709 5708 5707 5706 5705 5705 5706 5706 5706 5706 5705 5705 5705 5705 5705 5705 5705 5705 5705
5717 5715 5717 5718 5717 5716 5716 5715 5716 5717 5717 5716 5717 5716 5715 5714 5714 5714 5713 5713 5713 5713 5714 5714 5714 5714 5712 5711 5713 5713 5712 5713 5712 5712 5713 5712 5711 5711 5711 5711 5711 5711 5712 5712 5712 5711 5708 5707 5709 5711 5709 5708 5708 5707 5707 5708 5707 5707 5706 5706 5706 5706 5706 5705 5706 5706 5706 5706 5705 5703 5702 5702 5702 5703 5703 5703 5703 5702 5702 5702 5702 5702 5702 5701 5701 5701
5715 5713 5713 5715 5714 5713 5713 5713 5713 5714 5713 5712 5713 5713 5712 5712 5711 5711 5710 5711 5711 5710 5711 5710 5711 5711 5709 5708 5710 5709 5708 5710 5710 5709 5709 5709 5708 5708 5708 5708 5708 5708 5709 5709 5709 5708 5706 5704 5705 5708 5707 5705 5705 5704 5705 5705 5704 5703 5703 5703 5703 5702 5702 5702 5702 5703 5703 5702 5701 5700 5699 5699 5700 5700 5700 5699 5699 5699 5699 5699 5699 5699 5698 5698 5698 5698
5713 5711 5709 5711 5711 5710 5710 5710 5709 5709 5709 5709 5709 5709 5709 5709 5709 5707 5707 5708 5708 5707 5708 5707 5707 5707 5707 5706 5707 5705 5705 5706 5707 5706 5707 5707 5706 5705 5705 5705 5706 5705 5705 5706 5706 5706 5704 5702 5702 5704 5704 5703 5702 5701 5701 5702 5701 5700 5700 5699 5699 5699 5698 5698 5698 5699 5699 5698 5697 5696 5696 5696 5696 5697 5696 5696 5696 5696 5696 5695 5695 5695 5695 5694 5694 5694
5710 5708 5706 5706 5707 5707 5706 5707 5706 5704 5704 5705 5705 5705 5705 5705 5705 5703 5703 5704 5704 5704 5704 5704 5703 5703 5704 5704 5703 5702 5703 5703 5703 5703 5704 5704 5703 5702 5703 5703 5702 5702 5702 5702 5703 5703 5702 5700 5699 5700 5701 5700 5699 5697 5698 5699 5699 5697 5697 5696 5696 5695 5695 5694 5694 5695 5695 5694 5693 5693 5693 5692 5693 5693 5692 5692 5692 5692 5692 5692 5691 5691 5691 5690 5690 5689
5707 5705 5703 5702 5702 5702 5703 5703 5702 5701 5700 5701 5701 5701 5701 5701 5700 5700 5700 5700 5700 5700 5700 5700 5700 5700 5701 5702 5701 5700 5700 5699 5699 5700 5700 5700 5700 5700 5700 5700 5699 5699 5700 5699 5699 5700 5699 5698 5696 5696 5698 5698 5696 5694 5694 5696 5696 5694 5693 5693 5693 5693 5692 5691 5691 5691 5691 5691 5690 5690 5689 5689 5689 5689 5688 5688 5688 5688 5688 5688 5687 5687 5687 5686 5686 5685
5704 5702 5700 5698 5697 5698 5699 5698 5698 5697 5697 5696 5696 5696 5697 5697 5696 5697 5697 5696 5695 5697 5697 5697 5697 5697 5697 5697 5697 5697 5697 5696 5695 5697 5697 5696 5697 5696 5697 5697 5696 5696 5696 5696 5696 5696 5696 5695 5694 5693 5693 5694 5693 5691 5690 5692 5693 5691 5689 5689 5689 5690 5689 5688 5687 5687 5687 5687 5687 5686 5686 5686 5685 5685 5684 5684 5684 5684 5684 5683 5683 5683 5682 5682 5681 5681
5701 5700 5698 5695 5694 5693 5694 5694 5693 5692 5692 5692 5692 5692 5692 5693 5693 5693 5693 5692 5692 5693 5694 5693 5693 5694 5693 5693 5693 5693 5693 5692 5692 5692 5693 5692 5692 5693 5693 5694 5694 5693 5693 5693 5692 5692 5692 5692 5691 5691 5690 5690 5690 5688 5686 5687 5688 5687 5685 5685 5686 5686 5685 5684 5684 5684 5683 5683 5682 5682 5682 5682 5681 5681 5680 5680 5680 5679 5679 5679 5679 5678 5678 5677 5676 5676
5699 5698 5696 5693 5691 5690 5690 5690 5688 5688 5688 5688 5688 5688 5689 5689 5689 5689 5688 5689 5689 5689 5690 5691 5690 5691 5690 5689 5689 5689 5688 5689 5689 5689 5689 5689 5688 5689 5689 5689 5689 5689 5689 5689 5689 5688 5688 5688 5688 5688 5688 5687 5687 5685 5683 5683 5684 5683 5681 5682 5682 5682 5681 5681 5681 5680 5679 5679 5678 5678 5679 5678 5677 5677 5676 5676 5676 5675 5675 5675 5674 5673 5672 5671 5671 5670
5695 5694 5693 5691 5690 5688 5686 5686 5685 5683 5683 5684 5684 5684 5685 5685 5685 5685 5685 5686 5686 5685 5686 5688 5687 5686 5687 5687 5686 5686 5685 5685 5686 5685 5685 5685 5685 5684 5685 5685 5685 5685 5685 5685 5684 5684 5684 5685 5684 5684 5684 5684 5684 5683 5681 5680 5680 5679 5678 5678 5679 5679 5677 5677 5677 5676 5675 5675 5675 5675 5675 5674 5673 5673 5672 5672 5672 5671 5671 5670 5669 5668 5667 5666 5665 5665
5692 5691 5690 5688 5687 5685 5684 5683 5682 5680 5679 5679 5679 5680 5681 5681 5681 5681 5682 5683 5682 5681 5683 5684 5684 5683 5683 5683 5683 5683 5682 5681 5681 5681 5681 5681 5680 5680 5680 5680 5681 5681 5681 5681 5680 5680 5680 5681 5681 5681 5680 5680 5680 5680 5678 5677 5677 5676 5674 5674 5675 5675 5673 5673 5673 5672 5671 5671 5671 5671 5670 5669 5669 5668 5668 5668 5668 5667 5666 5665 5664 5663 5662 5661 5660 5660
5689 5688 5687 5685 5684 5683 5681 5680 5679 5677 5676 5676 5677 5677 5678 5678 5678 5678 5679 5679 5678 5678 5679 5680 5680 5680 5679 5679 5679 5679 5678 5678 5678 5677 5676 5676 5676 5676 5676 5676 5676 5676 5677 5677 5677 5676 5675 5676 5677 5677 5676 5676 5676 5676 5675 5674 5673 5672 5671 5671 5671 5670 5669 5669 5669 5668 5668 5667 5667 5667 5666 5665 5664 5664 5664 5664 5663 5662 5662 5661 5660 5659 5658 5657 5656 5655
5686 5685 5684 5681 5681 5681 5679 5678 5677 5675 5674 5674 5674 5675 5675 5675 5675 5675 5675 5675 5675 5674 5675 5674 5674 5675 5674 5674 5674 5674 5674 5675 5674 5673 5672 5672 5671 5672 5672 5672 5672 5672 5673 5673 5673 5672 5671 5671 5672 5673 5672 5672 5672 5672 5671 5670 5669 5667 5667 5668 5667 5666 5665 5665 5664 5664 5664 5663 5663 5662 5662 5661 5660 5660 5660 5659 5658 5658 5657 5656 5655 5654 5653 5652 5651 5650
5683 5682 5681 5679 5677 5678 5677 5675 5674 5673 5671 5671 5672 5672 5671 5671 5671 5671 5671 5671 5670 5670 5670 5670 5670 5670 5669 5669 5669 5669 5669 5670 5670 5669 5668 5667 5667 5668 5668 5668 5668 5668 5669 5669 5669 5669 5669 5668 5668 5668 5668 5668 5668 5667 5667 5666 5665 5664 5664 5664 5663 5662 5662 5661 5660 5660 5660 5659 5659 5658 5657 5656 5656 5656 5656 5655 5654 5653 5652 5651 5651 5650 5649 5648 5647 5646
5680 5679 5679 5677 5675 5675 5675 5673 5672 5671 5669 5669 5669 5668 5668 5668 5667 5667 5667 5667 5666 5666 5666 5666 5665 5665 5664 5664 5665 5664 5664 5665 5665 5665 5664 5663 5663 5664 5664 5665 5665 5665 5665 5665 5666 5666 5666 5666 5665 5665 5664 5664 5664 5663 5663 5662 5661 5661 5661 5660 5659 5658 5658 5657 5656 5656 5656 5655 5655 5654 5653 5653 5652 5652 5651 5650 5650 5649 5648 5647 5647 5646 5644 5643 5642 5641
5679 5677 5676 5674 5672 5673 5673 5671 5670 5669 5667 5667 5666 5665 5665 5664 5664 5664 5664 5664 5664 5663 5662 5662 5662 5661 5660 5661 5661 5661 5660 5660 5661 5661 5661 5660 5660 5660 5661 5661 5661 5661 5662 5663 5663 5662 5662 5663 5662 5662 5660 5660 5660 5660 5659 5659 5658 5658 5657 5657 5656 5655 5654 5653 5652 5652 5652 5652 5651 5650 5649 5649 5648 5648 5647 5646 5646 5645 5644 5643 5642 5641 5640 5639 5638 5636
5676 5675 5674 5672 5670 5670 5670 5669 5667 5667 5666 5664 5664 5663 5662 5662 5661 5661 5661 5661 5661 5659 5658 5658 5659 5658 5657 5657 5657 5657 5656 5656 5657 5657 5657 5657 5657 5657 5657 5658 5658 5658 5659 5659 5659 5659 5659 5659 5659 5659 5658 5657 5657 5657 5656 5656 5655 5655 5654 5653 5652 5651 5650 5649 5649 5648 5648 5648 5647 5646 5646 5645 5645 5644 5643 5642 5642 5641 5640 5639 5638 5637 5635 5634 5633 5631
5674 5672 5671 5670 5669 5667 5667 5666 5665 5665 5665 5662 5661 5661 5660 5660 5659 5659 5659 5658 5657 5656 5655 5656 5656 5655 5654 5654 5654 5654 5654 5653 5654 5654 5653 5654 5654 5654 5654 5655 5655 5656 5656 5656 5655 5655 5656 5656 5656 5656 5655 5654 5653 5653 5653 5653 5652 5651 5650 5649 5648 5647 5646 5645 5645 5645 5644 5644 5643 5642 5642 5642 5641 5640 5639 5638 5637 5637 5636 5635 5634 5632 5631 5629 5628 5627
5671 5670 5668 5667 5666 5665 5665 5664 5663 5663 5662 5661 5660 5659 5659 5658 5657 5657 5656 5655 5654 5653 5653 5653 5653 5652 5652 5652 5652 5652 5651 5651 5651 5651 5651 5651 5652 5652 5652 5652 5652 5653 5653 5652 5652 5652 5653 5653 5653 5652 5652 5651 5650 5649 5649 5649 5648 5647 5646 5645 5644 5643 5642 5642 5641 5641 5640 5640 5639 5638 5638 5638 5637 5636 5635 5634 5634 5633 5632 5631 5629 5628 5626 5625 5623 5622
5668 5667 5666 5664 5664 5663 5661 5660 5660 5660 5659 5658 5658 5657 5656 5656 5655 5653 5652 5652 5651 5650 5650 5650 5650 5650 5650 5650 5650 5649 5648 5648 5648 5648 5649 5649 5649 5649 5650 5650 5650 5650 5650 5650 5649 5649 5649 5649 5649 5649 5648 5648 5647 5646 5645 5645 5645 5643 5642 5642 5641 5640 5639 5638 5638 5637 5636 5636 5635 5635 5634 5634 5633 5632 5631 5630 5630 5629 5628 5626 5625 5623 5622 5621 5619 5618
5666 5665 5663 5662 5661 5661 5659 5658 5657 5657 5656 5655 5655 5654 5653 5652 5651 5650 5649 5649 5648 5647 5647 5648 5647 5647 5647 5647 5646 5646 5646 5646 5645 5646 5646 5646 5646 5647 5647 5647 5647 5647 5647 5647 5646 5646 5646 5646 5646 5646 5645 5644 5643 5642 5641 5642 5641 5639 5638 5638 5637 5636 5635 5634 5633 5633 5632 5632 5631 5631 5630 5630 5629 5628 5627 5626 5626 5625 5623 5622 5621 5619 5618 5617 5615 5614
5663 5662 5660 5659 5658 5658 5657 5656 5655 5654 5653 5652 5652 5651 5650 5649 5648 5648 5647 5646 5645 5644 5644 5645 5644 5644 5644 5643 5643 5643 5643 5643 5643 5643 5643 5644 5643 5644 5644 5644 5644 5644 5643 5644 5643 5643 5643 5642 5642 5642 5641 5641 5640 5638 5637 5637 5637 5636 5634 5634 5633 5632 5631 5630 5630 5629 5628 5628 5627 5627 5626 5625 5625 5624 5623 5622 5621 5620 5619 5618 5617 5615 5614 5613 5611 5610
5661 5659 5658 5657 5656 5655 5654 5653 5652 5651 5650 5650 5649 5648 5647 5646 5646 5646 5645 5644 5643 5642 5642 5642 5641 5641 5641 5640 5640 5640 5640 5640 5640 5640 5641 5641 5641 5641 5641 5641 5641 5640 5640 5640 5640 5640 5639 5639 5638 5637 5637 5636 5635 5634 5633 5633 5633 5632 5631 5629 5629 5628 5627 5627 5626 5625 5624 5624 5623 5622 5622 5621 5621 5620 5619 5618 5617 5616 5615 5614 5613 5612 5610 5609 5607 5606
5657 5657 5656 5654 5654 5653 5652 5651 5650 5649 5648 5647 5646 5646 5645 5644 5643 5643 5642 5642 5640 5640 5640 5640 5639 5638 5638 5638 5638 5638 5638 5638 5638 5637 5637 5637 5637 5637 5637 5637 5637 5636 5636 5636 5636 5636 5636 5635 5634 5633 5632 5631 5631 5630 5629 5629 5628 5628 5627 5626 5625 5624 5623 5622 5622 5621 5620 5620 5619 5618 5618 5617 5617 5616 5615 5614 5613 5612 5611 5610 5609 5608 5607 5605 5604 5602
5654 5654 5653 5652 5651 5650 5649 5648 5647 5646 5645 5644 5643 5642 5641 5640 5640 5639 5639 5638 5637 5637 5637 5637 5636 5635 5635 5635 5635 5635 5635 5635 5635 5634 5634 5633 5633 5633 5633 5633 5632 5632 5632 5632 5631 5631 5631 5631 5630 5629 5628 5627 5626 5625 5624 5624 5624 5623 5623 5622 5621 5620 5619 5618 5617 5616 5616 5615 5615 5615 5614 5614 5613 5613 5612 5611 5610 5609 5608 5607 5606 5605 5603 5602 5600 5599
5652 5651 5650 5650 5649 5648 5647 5646 5645 5643 5642 5640 5639 5639 5638 5637 5637 5636 5635 5634 5634 5634 5634 5633 5632 5631 5631 5631 5632 5632 5632 5632 5631 5631 5630 5630 5630 5630 5630 5629 5629 5628 5628 5628 5627 5627 5627 5626 5626 5625 5623 5623 5622 5620 5619 5620 5619 5618 5618 5618 5617 5616 5615 5614 5613 5612 5611 5611 5611 5611 5610 5610 5609 5609 5608 5608 5607 5606 5605 5604 5603 5602 5600 5599 5597 5596
5649 5649 5647 5647 5646 5645 5644 5644 5643 5641 5640 5638 5636 5635 5635 5634 5633 5633 5632 5631 5630 5630 5629 5628 5628 5628 5628 5627 5628 5628 5628 5628 5628 5628 5627 5627 5626 5626 5626 5625 5625 5624 5624 5624 5623 5622 5622 5622 5621 5621 5619 5618 5618 5616 5615 5615 5615 5614 5613 5613 5612 5612 5611 5610 5609 5608 5607 5607 5607 5607 5606 5606 5606 5605 5605 5604 5603 5602 5601 5601 5600 5599 5597 5596 5595 5593
5646 5646 5644 5644 5644 5643 5642 5641 5640 5639 5637 5636 5633 5632 5632 5631 5630 5629 5628 5628 5627 5626 5625 5624 5624 5624 5624 5624 5624 5624 5624 5624 5624 5624 5623 5623 5623 5622 5622 5621 5621 5620 5620 5619 5619 5618 5618 5617 5617 5616 5615 5614 5614 5613 5611 5610 5610 5609 5609 5608 5608 5607 5607 5606 5605 5604 5603 5603 5603 5603 5603 5602 5602 5601 5601 5601 5600 5599 5598 5597 5597 5596 5594 5593 5592 5591
5644 5643 5643 5642 5641 5641 5640 5639 5637 5636 5634 5633 5631 5630 5629 5628 5627 5626 5625 5624 5624 5623 5622 5621 5621 5621 5621 5620 5620 5620 5620 5620 5620 5620 5619 5619 5618 5618 5618 5617 5617 5616 5615 5615 5615 5614 5613 5613 5612 5611 5611 5610 5609 5609 5607 5606 5605 5605 5604 5604 5604 5603 5602 5602 5601 5601 5600 5599 5599 5599 5599 5598 5598 5598 5597 5597 5597 5596 5595 5594 5593 5592 5591 5590 5589 5588
5642 5641 5641 5640 5639 5638 5637 5636 5634 5633 5632 5630 5628 5627 5626 5625 5624 5623 5621 5621 5620 5620 5620 5619 5619 5618 5617 5617 5616 5616 5616 5616 5616 5615 5615 5615 5615 5614 5614 5613 5613 5612 5611 5610 5610 5609 5609 5608 5608 5607 5606 5606 5605 5604 5603 5602 5601 5600 5600 5600 5599 5599 5598 5598 5597 5597 5596 5595 5595 5595 5595 5595 5594 5594 5594 5593 5593 5592 5592 5591 5590 5589 5588 5588 5587 5586
5641 5640 5639 5638 5637 5636 5635 5633 5631 5631 5630 5628 5625 5624 5623 5622 5621 5620 5618 5618 5618 5618 5617 5616 5616 5615 5614 5613 5613 5612 5612 5612 5611 5611 5611 5611 5611 5610 5610 5609 5609 5608 5607 5607 5606 5606 5605 5605 5604 5603 5602 5602 5601 5600 5599 5598 5597 5596 5596 5595 5595 5595 5595 5594 5593 5593 5592 5592 5591 5591 5591 5591 5591 5591 5590 5590 5590 5589 5589 5588 5587 5586 5586 5585 5584 5583
5639 5638 5637 5636 5635 5634 5633 5630 5629 5629 5628 5626 5624 5622 5620 5619 5617 5616 5615 5615 5614 5614 5614 5613 5612 5611 5610 5609 5609 5608 5607 5607 5607 5607 5607 5607 5607 5607 5606 5606 5605 5604 5603 5603 5603 5602 5601 5601 5600 5599 5598 5598 5597 5596 5595 5593 5592 5592 5592 5591 5591 5591 5591 5590 5590 5589 5589 5588 5588 5588 5588 5588 5588 5587 5587 5587 5587 5586 5586 5585 5584 5584 5583 5582 5581 5581
5637 5636 5635 5634 5633 5631 5630 5629 5627 5626 5625 5623 5621 5619 5617 5615 5614 5613 5612 5611 5611 5610 5610 5609 5609 5608 5607 5606 5605 5604 5604 5603 5603 5603 5603 5603 5603 5602 5602 5601 5600 5600 5599 5599 5599 5598 5598 5597 5596 5595 5595 5594 5593 5592 5591 5589 5588 5588 5588 5588 5588 5588 5587 5586 5586 5586 5585 5585 5584 5584 5584 5585 5584 5584 5584 5584 5583 5583 5583 5582 5582 5581 5580 5579 5579 5578